Location: Limoges
(45.8500°N, 1.2500°E)
Time: 00:33:30
(UTC+01:00)

ISS - Pass Details

Date: 03 December 2020
Orbit: 418 x 419 km, 51.6° (Epoch: 17 January)

Event Time Altitude Azimuth Distance (km) Brightness Sun altitude
Rises 18:55:12 0° 297° (WNW) 2,368 0.8 -17.5°
Reaches altitude 10° 18:57:21 10° 303° (WNW) 1,502 -0.4 -17.8°
Maximum altitude 19:00:38 49° 20° (NNE) 548 -3.5 -18.4°
Enters shadow 19:00:39 49° 22° (NNE) 548 -3.5 -18.4°
